This is the latest recevied weather packets stored in our database for station/object JA3YAI-13. If no packets are shown the sender has not sent any weather packets the latest 10 day(s).
| Time | Temp. | Humidity | Pressure | Rain* | Wind** | Luminosity | Snow |
|---|---|---|---|---|---|---|---|
| 1777971385 | 20° C | 46% | 1011.5 hPa | 0 mm | - | - | - |
| 1777970785 | 20.56° C | 51% | 1011.3 hPa | 0 mm | - | - | - |
| 1777970184 | 20.56° C | 51% | 1011.3 hPa | 0 mm | - | - | - |
| 1777969583 | 21.11° C | 47% | 1011.3 hPa | 0 mm | - | - | - |
| 1777968985 | 21.67° C | 42% | 1011.3 hPa | 0 mm | - | - | - |
| 1777968385 | 22.22° C | 38% | 1011.3 hPa | 0 mm | - | - | - |
| 1777967784 | 22.22° C | 38% | 1011.2 hPa | 0 mm | - | - | - |
| 1777967184 | 22.22° C | 35% | 1011.2 hPa | 0 mm | - | - | - |
| 1777966584 | 22.22° C | 33% | 1010.9 hPa | 0 mm | - | - | - |
| 1777965984 | 21.67° C | 35% | 1011.2 hPa | 0 mm | - | - | - |
| 1777965385 | 22.22° C | 34% | 1011.1 hPa | 0 mm | - | - | - |
| 1777964785 | 21.67° C | 36% | 1011 hPa | 0 mm | - | - | - |
| 1777964185 | 22.22° C | 37% | 1010.9 hPa | 0 mm | - | - | - |
| 1777963584 | 21.67° C | 39% | 1011.2 hPa | 0 mm | - | - | - |
| 1777962984 | 23.33° C | 39% | 1011.1 hPa | 0 mm | - | - | - |
| 1777962383 | 22.22° C | 39% | 1011.1 hPa | 0 mm | - | - | - |
| 1777961785 | 22.22° C | 39% | 1011.2 hPa | 0 mm | - | - | - |
| 1777961184 | 22.78° C | 39% | 1011.3 hPa | 0 mm | - | - | - |
| 1777960584 | 22.78° C | 38% | 1011.2 hPa | 0 mm | - | - | - |
| 1777959984 | 21.67° C | 37% | 1011.4 hPa | 0 mm | - | - | - |
| 1777959385 | 21.67° C | 35% | 1011.6 hPa | 0 mm | - | - | - |
| 1777958785 | 22.22° C | 33% | 1011.7 hPa | 0 mm | - | - | - |
| 1777958184 | 22.22° C | 29% | 1011.7 hPa | 0 mm | - | - | - |
| 1777957584 | 21.11° C | 28% | 1011.5 hPa | 0 mm | - | - | - |
| 1777956984 | 21.67° C | 28% | 1011.9 hPa | 0 mm | - | - | - |
* Rain latest hour (hover to see other rain measurements)
** Current wind speed in m/s (hover to see current wind gust speed)